Location: Sternwarte_Laufen
(47.9344°N, 12.9346°E)
Time: 01:05:50
(UTC+02:00)

Envisat - Visible Passes

Search period start: 24 August 2019 00:00
Search period end: 03 September 2019 00:00
Orbit: 764 x 766 km, 98.1° (Epoch: 23 August)

Date Brightness Start Highest point End Pass type
(mag) Time Alt. Az. Time Alt. Az. Time Alt. Az.
25 Aug 6.0 20:52:56 10° WSW 20:55:27 14° W 20:58:00 10° WNW visible
28 Aug 5.9 20:40:47 10° SW 20:44:03 17° W 20:47:22 10° NW visible
31 Aug 5.7 20:28:52 10° SW 20:32:41 21° W 20:36:31 10° NW visible
02 Sep 6.1 20:56:25 10° WSW 20:58:32 12° W 21:00:40 10° WNW visible
